Weather History for KTCM - June, 2014

Change the Weather History Date:

Saturday, June 7, 2014

  Actual Average Record
Temperature  
Mean Temperature 62 °F -  
Max Temperature 75 °F 65 °F 93 °F (2003)
Min Temperature 49 °F 46 °F 39 °F (1979)
Degree Days  
Heating Degree Days 4    
Growing Degree Days 12 (Base 50)    
Moisture  
Dew Point 51 °F    
Average Humidity 73    
Maximum Humidity 95    
Minimum Humidity 41    
Precipitation  
Precipitation 0.00 in - - ()
Sea Level Pressure  
Sea Level Pressure 30.18 in    
Wind  
Wind Speed 4 mph (West)    
Max Wind Speed 7 mph    
Max Gust Speed -    
Visibility 10 miles    
Events      
Averages and records for this station are not official NWS values.
T = Trace of Precipitation, MM = Missing Value Source: NWS Daily Summary

Daily Weather History Graph

Daily Weather History Graph

Search for Another Location

Airport or City:

Trip Planner

Search our weather history database for the weather conditions in past years. The results will help you decide how hot, cold, wet, or windy it might be!

Date:

Astronomy

Jun. 07, 2014 Rise Set
Actual Time 5:15 AM PDT 9:02 PM PDT
Civil Twilight 4:35 AM PDT 9:42 PM PDT
Nautical Twilight 3:42 AM PDT 10:35 PM PDT
Astronomical Twilight 2:25 AM PDT 11:53 PM PDT
Moon 3:05 PM PDT (6/7) 2:02 AM PDT (6/7)
Length of Visible Light 17h 06m
Length of Day
15h 47m
Waxing Gibbous, 69% of the Moon is Illuminated
Jun 7
Waxing Gibbous
Jun 12
Full
Jun 19
Last Quarter
Jun 27
New
Jul 5
First Quarter

Hourly Weather History & Observations

Time (PDT) Temp. Dew Point Humidity Pressure Visibility Wind Dir Wind Speed Gust Speed Precip Events Conditions
12:58 AM 57.0 °F 49.6 °F 76% 30.13 in 10.0 mi West 3.5 mph - N/A   Clear
1:58 AM 55.4 °F 49.8 °F 81% 30.14 in 10.0 mi WSW 4.6 mph - N/A   Clear
2:58 AM 54.1 °F 49.8 °F 85% 30.15 in 10.0 mi Calm Calm - N/A   Clear
3:58 AM 52.9 °F 49.8 °F 89% 30.16 in 10.0 mi South 2.3 mph - N/A   Clear
4:58 AM 49.5 °F 48.0 °F 95% 30.17 in 10.0 mi SW 1.2 mph - N/A   Clear
5:58 AM 52.2 °F 50.7 °F 95% 30.18 in 10.0 mi SSW 4.6 mph - N/A   Scattered Clouds
6:28 AM 51.8 °F 50.0 °F 94% 30.18 in 10.0 mi South 3.5 mph - N/A   Mostly Cloudy
6:48 AM 51.8 °F 50.0 °F 94% 30.18 in 10.0 mi South 3.5 mph - N/A   Overcast
6:58 AM 52.7 °F 50.7 °F 93% 30.19 in 10.0 mi South 3.5 mph - N/A   Mostly Cloudy
7:03 AM 53.6 °F 50.0 °F 88% 30.18 in 10.0 mi South 3.5 mph - N/A   Scattered Clouds
7:18 AM 53.6 °F 50.0 °F 88% 30.19 in 10.0 mi Variable 2.3 mph - N/A   Mostly Cloudy
7:23 AM 53.6 °F 50.0 °F 88% 30.19 in 10.0 mi Variable 2.3 mph - N/A   Mostly Cloudy
7:33 AM 53.6 °F 50.0 °F 88% 30.19 in 10.0 mi Variable 3.5 mph - N/A   Overcast
7:58 AM 54.7 °F 50.9 °F 87% 30.20 in 10.0 mi West 4.6 mph - N/A   Overcast
8:23 AM 55.4 °F 51.8 °F 88% 30.20 in 10.0 mi West 3.5 mph - N/A   Overcast
8:58 AM 55.9 °F 51.1 °F 84% 30.21 in 10.0 mi South 1.2 mph - N/A   Overcast
9:48 AM 59.0 °F 51.8 °F 77% 30.21 in 10.0 mi Variable 3.5 mph - N/A   Scattered Clouds
9:53 AM 59.0 °F 51.8 °F 77% 30.21 in 10.0 mi Variable 5.8 mph - N/A   Mostly Cloudy
9:58 AM 59.0 °F 51.3 °F 75% 30.22 in 10.0 mi WNW 4.6 mph - N/A   Scattered Clouds
10:13 AM 60.8 °F 51.8 °F 72% 30.20 in 10.0 mi NW 5.8 mph - N/A   Mostly Cloudy
10:23 AM 60.8 °F 51.8 °F 72% 30.20 in 10.0 mi Variable 2.3 mph - N/A   Scattered Clouds
10:58 AM 62.4 °F 52.2 °F 69% 30.21 in 10.0 mi NNE 5.8 mph - N/A   Clear
11:58 AM 64.9 °F 52.0 °F 63% 30.21 in 10.0 mi North 4.6 mph - N/A   Clear
12:58 PM 68.4 °F 52.2 °F 56% 30.20 in 10.0 mi North 5.8 mph - N/A   Clear
1:58 PM 70.0 °F 51.1 °F 51% 30.18 in 10.0 mi NNW 5.8 mph - N/A   Clear
2:58 PM 72.7 °F 52.2 °F 48% 30.18 in 10.0 mi WNW 5.8 mph - N/A   Clear
3:58 PM 73.2 °F 51.6 °F 47% 30.18 in 10.0 mi Variable 6.9 mph - N/A   Clear
4:58 PM 74.7 °F 49.8 °F 42% 30.17 in 10.0 mi Variable 4.6 mph - N/A   Clear
5:58 PM 73.0 °F 48.2 °F 41% 30.16 in 10.0 mi NNW 6.9 mph - N/A   Mostly Cloudy
6:58 PM 72.1 °F 49.8 °F 45% 30.16 in 10.0 mi NNE 4.6 mph - N/A   Overcast
7:58 PM 70.9 °F 49.5 °F 47% 30.16 in 10.0 mi NNE 2.3 mph - N/A   Mostly Cloudy
8:58 PM 68.0 °F 50.4 °F 53% 30.17 in 10.0 mi NNE 3.5 mph - N/A   Scattered Clouds
9:58 PM 65.5 °F 53.6 °F 65% 30.18 in 10.0 mi Calm Calm - N/A   Clear
10:58 PM 63.0 °F 54.1 °F 73% 30.19 in 10.0 mi WNW 4.6 mph - N/A   Clear
11:58 PM 61.2 °F 54.7 °F 79% 30.20 in 10.0 mi Calm Calm - N/A   Partly Cloudy